Location: *
(45.9500°N, 9.0833°E)
Time: 00:16:18
(UTC+00:00)

Vanguard 2 Rocket - Pass Details

Date: 21 June 2021
Orbit: 555 x 3325 km, 32.9° (Epoch: 03 August)

Event Time Altitude Azimuth Distance (km) Brightness Sun altitude
Rises 15:33:15 0° 198° (SSW) 6,810 11.6 35.9°
Reaches altitude 10° 15:39:03 10° 186° (S) 6,062 11.3 34.9°
Maximum altitude 15:52:51 24° 141° (SE) 5,137 10.6 32.5°
Drops below altitude 10° 16:06:05 10° 97° (E) 5,877 10.6 30.2°
Sets 16:11:27 0° 85° (E) 6,575 10.7 29.3°
